Location: Montbazon
(47.2835°N, 0.6999°E)
Time: 07:49:06
(UTC+00:00)

Cosmos 1782 Rocket - Pass Details

Date: 08 November 2025
Orbit: 599 x 626 km, 82.5° (Epoch: 12 December)

Event Time Altitude Azimuth Distance (km) Brightness Sun altitude
Rises 05:31:50 0° 347° (NNW) 2,909 6.8 -13.7°
Reaches altitude 10° 05:34:06 10° 344° (NNW) 1,994 5.9 -13.3°
Maximum altitude 05:38:26 59° 265° (W) 715 3.6 -12.6°
Drops below altitude 10° 05:42:42 10° 186° (S) 1,962 6.2 -11.9°
Sets 05:44:55 0° 183° (S) 2,856 7.1 -11.5°
